User: anonymous   Login
Location: Muenchen
(48.1800°N, 11.5800°E)
Time: 23:49:22
(UTC+02:00)
Language:

Cosmos 2233 Rocket - Orbit

View from above orbital plane
View from above orbital plane
View from above satellite
View from above satellite

Ground track
Ground track

The orbit data is extracted from the following two-line orbital elements,

1 22488U 93008B   16207.90962041 +.00000027 +00000-0 +11483-4 0  9991
2 22488 082.9451 321.2329 0026577 061.3795 077.9150 13.77698205179043
Epoch (UTC): 25 July 2016 21:49:51
Eccentricity: 0.0026577
inclination: 82.9451°
perigee height: 952 km
apogee height: 991 km
right ascension of ascending node: 321.2329°
argument of perigee: 61.3795°
revolutions per day: 13.77698205
mean anomaly at epoch: 77.9150°
orbit number at epoch: 17904

The dashed part of the orbit path shows where the satellite is in the earth's shadow,  

DLR